Location: Newark
(54.6833°N, 25.2833°E)
Time: 04:56:58
(UTC+00:00)

Tiros 1 despin weight - Pass Details

Date: 23 November 2019
Orbit: 594 x 642 km, 48.2° (Epoch: 06 December)

Event Time Altitude Azimuth Distance (km) Brightness Sun altitude
Rises 15:23:46 0° 270° (W) 2,841 ? -10.7°
Reaches altitude 10° 15:26:47 10° 249° (WSW) 1,943 ? -11.2°
Maximum altitude 15:29:30 16° 211° (SSW) 1,587 ? -11.5°
Drops below altitude 10° 15:32:14 10° 173° (S) 1,953 ? -11.9°
Sets 15:35:17 0° 152° (SSE) 2,864 ? -12.3°
